Hourly Weather Neshville

Today, 16 June, Wednesday

Time Temperature Precipitation Wind Pressure Humidity
00:00 +18°C° 0 mm 0 mps 750 mmHg 80%
01:00 +20°C° 0 mm 1 mps 750 mmHg 80%
02:00 +20°C° 0 mm 1 mps 750 mmHg 81%
03:00 +20°C° 0 mm 1 mps 750 mmHg 82%
04:00 +20°C° 0 mm 1 mps 751 mmHg 81%
05:00 +21°C° 0 mm 1 mps 751 mmHg 80%
06:00 +22°C° 0 mm 1 mps 751 mmHg 78%
07:00 +23°C° 0 mm 1 mps 751 mmHg 72%
08:00 +25°C° 0 mm 1 mps 751 mmHg 65%
09:00 +26°C° 0 mm 1 mps 752 mmHg 58%
10:00 +28°C° 0 mm 2 mps 751 mmHg 55%
11:00 +29°C° 0 mm 2 mps 751 mmHg 51%
12:00 +30°C° 0 mm 3 mps 751 mmHg 47%
13:00 +30°C° 0 mm 3 mps 751 mmHg 48%
14:00 +30°C° 0 mm 3 mps 751 mmHg 48%
15:00 +30°C° 0 mm 3 mps 750 mmHg 48%
16:00 +29°C° 0 mm 2 mps 750 mmHg 56%
17:00 +28°C° 0 mm 2 mps 750 mmHg 63%
18:00 +26°C° 0 mm 2 mps 750 mmHg 70%
19:00 +25°C° 0 mm 1 mps 750 mmHg 73%
20:00 +24°C° 0 mm 1 mps 751 mmHg 75%
21:00 +23°C° 0 mm 1 mps 751 mmHg 77%
22:00 +22°C° 0 mm 1 mps 751 mmHg 79%
23:00 +20°C° 0 mm 0 mps 751 mmHg 80%

Tomorrow, 17 June, Thursday

Time Temperature Precipitation Wind Pressure Humidity
00:00 +19°C° 0 mm 0 mps 751 mmHg 82%
01:00 +19°C° 0 mm 0 mps 751 mmHg 83%
02:00 +18°C° 0 mm 0 mps 751 mmHg 84%
03:00 +18°C° 0 mm 0 mps 751 mmHg 86%
04:00 +19°C° 0 mm 0 mps 751 mmHg 84%
05:00 +19°C° 0 mm 0 mps 751 mmHg 83%
06:00 +20°C° 0 mm 0 mps 751 mmHg 81%
07:00 +22°C° 0 mm 0 mps 751 mmHg 75%
08:00 +24°C° 0 mm 0 mps 751 mmHg 68%
09:00 +26°C° 0 mm 0 mps 751 mmHg 61%
10:00 +27°C° 0 mm 0 mps 751 mmHg 57%
11:00 +30°C° 0 mm 1 mps 751 mmHg 53%
12:00 +31°C° 0 mm 1 mps 751 mmHg 49%
13:00 +31°C° 0 mm 2 mps 751 mmHg 48%
14:00 +31°C° 0 mm 2 mps 750 mmHg 47%
15:00 +31°C° 0 mm 2 mps 750 mmHg 46%
16:00 +30°C° 0 mm 2 mps 750 mmHg 54%
17:00 +29°C° 0 mm 2 mps 750 mmHg 61%
18:00 +28°C° 0 mm 1 mps 750 mmHg 68%
19:00 +26°C° 0 mm 1 mps 750 mmHg 70%
20:00 +25°C° 0 mm 1 mps 750 mmHg 71%
21:00 +24°C° 0 mm 1 mps 751 mmHg 73%
22:00 +23°C° 0 mm 1 mps 750 mmHg 74%
23:00 +23°C° 0 mm 1 mps 750 mmHg 74%

Day after tomorrow, 18 June, Friday

Time Temperature Precipitation Wind Pressure Humidity
00:00 +22°C° 0 mm 1 mps 750 mmHg 75%
01:00 +22°C° 0 mm 1 mps 750 mmHg 76%
02:00 +22°C° 0 mm 1 mps 750 mmHg 76%
03:00 +21°C° 0 mm 1 mps 750 mmHg 77%
04:00 +22°C° 0 mm 1 mps 750 mmHg 77%
05:00 +22°C° 0 mm 1 mps 750 mmHg 77%
06:00 +23°C° 0 mm 1 mps 750 mmHg 77%
07:00 +25°C° 0 mm 2 mps 751 mmHg 72%
08:00 +27°C° 0 mm 2 mps 751 mmHg 66%
09:00 +29°C° 0 mm 2 mps 751 mmHg 61%
10:00 +30°C° 0 mm 2 mps 751 mmHg 57%
11:00 +32°C° 0 mm 2 mps 750 mmHg 54%
12:00 +34°C° 0 mm 2 mps 750 mmHg 50%
13:00 +34°C° 0 mm 3 mps 750 mmHg 50%
14:00 +34°C° 0 mm 3 mps 749 mmHg 49%
15:00 +34°C° 0 mm 4 mps 749 mmHg 49%
16:00 +33°C° 0 mm 4 mps 749 mmHg 56%
17:00 +32°C° 0 mm 4 mps 749 mmHg 62%
18:00 +30°C° 0 mm 3 mps 748 mmHg 69%
19:00 +29°C° 0 mm 3 mps 749 mmHg 72%
20:00 +27°C° 0 mm 3 mps 749 mmHg 76%
21:00 +26°C° 0 mm 2 mps 750 mmHg 79%
22:00 +25°C° 0 mm 2 mps 750 mmHg 80%
23:00 +25°C° 0 mm 2 mps 749 mmHg 81%

19 June, Saturday

Time Temperature Precipitation Wind Pressure Humidity
00:00 +25°C° 0 mm 2 mps 749 mmHg 81%
01:00 +24°C° 0 mm 2 mps 749 mmHg 82%
02:00 +24°C° 0 mm 3 mps 749 mmHg 82%
03:00 +24°C° 0 mm 3 mps 749 mmHg 83%
04:00 +24°C° 0 mm 3 mps 750 mmHg 84%
05:00 +24°C° 0 mm 3 mps 750 mmHg 85%
06:00 +24°C° 0 mm 3 mps 750 mmHg 87%
07:00 +26°C° 0 mm 3 mps 751 mmHg 80%
08:00 +28°C° 0 mm 3 mps 751 mmHg 74%
09:00 +29°C° 0 mm 3 mps 751 mmHg 68%
10:00 +30°C° 0 mm 3 mps 751 mmHg 64%
11:00 +31°C° 0 mm 2 mps 750 mmHg 61%
12:00 +32°C° 0 mm 2 mps 750 mmHg 57%
13:00 +32°C° 0 mm 2 mps 749 mmHg 57%
14:00 +33°C° 0 mm 3 mps 749 mmHg 57%
15:00 +34°C° 0 mm 3 mps 749 mmHg 56%
16:00 +31°C° 0.1 mm 3 mps 749 mmHg 64%
17:00 +30°C° 0.1 mm 3 mps 749 mmHg 72%
18:00 +28°C° 0.1 mm 3 mps 749 mmHg 80%
19:00 +27°C° 0 mm 3 mps 749 mmHg 84%
20:00 +26°C° 0 mm 4 mps 749 mmHg 87%
21:00 +25°C° 0 mm 4 mps 749 mmHg 90%
22:00 +25°C° 0 mm 3 mps 749 mmHg 90%
23:00 +25°C° 0 mm 3 mps 749 mmHg 90%

20 June, Sunday

Time Temperature Precipitation Wind Pressure Humidity
00:00 +24°C° 0 mm 3 mps 749 mmHg 90%
01:00 +24°C° 0 mm 3 mps 749 mmHg 90%
02:00 +22°C° 0 mm 3 mps 749 mmHg 90%
03:00 +22°C° 0 mm 3 mps 749 mmHg 90%
04:00 +22°C° 0 mm 3 mps 749 mmHg 89%
05:00 +22°C° 0 mm 3 mps 748 mmHg 89%
06:00 +22°C° 0 mm 3 mps 748 mmHg 89%
07:00 +22°C° 0.1 mm 3 mps 748 mmHg 89%
08:00 +22°C° 0.1 mm 4 mps 748 mmHg 89%
09:00 +23°C° 0.1 mm 4 mps 748 mmHg 89%
10:00 +22°C° 0.6 mm 4 mps 747 mmHg 91%
11:00 +22°C° 0.6 mm 5 mps 747 mmHg 94%
12:00 +22°C° 0.6 mm 5 mps 746 mmHg 96%
13:00 +22°C° 3.9 mm 5 mps 746 mmHg 96%
14:00 +22°C° 3.9 mm 5 mps 745 mmHg 97%
15:00 +22°C° 3.9 mm 5 mps 745 mmHg 97%
16:00 +22°C° 2.8 mm 5 mps 744 mmHg 97%
17:00 +22°C° 2.8 mm 5 mps 744 mmHg 97%
18:00 +22°C° 2.8 mm 5 mps 743 mmHg 97%
19:00 +22°C° 1.9 mm 5 mps 743 mmHg 97%
20:00 +21°C° 1.9 mm 5 mps 743 mmHg 97%
21:00 +21°C° 1.9 mm 4 mps 742 mmHg 96%
22:00 +22°C° 0.2 mm 4 mps 742 mmHg 97%
23:00 +22°C° 0.2 mm 4 mps 742 mmHg 97%

21 June, Monday

Time Temperature Precipitation Wind Pressure Humidity
00:00 +23°C° 0.2 mm 4 mps 742 mmHg 98%
01:00 +23°C° 0.4 mm 4 mps 742 mmHg 98%
02:00 +23°C° 0.4 mm 4 mps 743 mmHg 98%
03:00 +23°C° 0.4 mm 4 mps 743 mmHg 98%
04:00 +23°C° 0 mm 4 mps 743 mmHg 98%
05:00 +24°C° 0 mm 3 mps 744 mmHg 98%
06:00 +24°C° 0 mm 3 mps 744 mmHg 97%
07:00 +25°C° 0.1 mm 3 mps 744 mmHg 97%
08:00 +25°C° 0.1 mm 3 mps 745 mmHg 96%
09:00 +26°C° 0.1 mm 3 mps 745 mmHg 95%
10:00 +27°C° 1 mm 4 mps 745 mmHg 94%
11:00 +28°C° 1 mm 4 mps 745 mmHg 92%
12:00 +28°C° 1 mm 4 mps 745 mmHg 90%
13:00 +28°C° 1.2 mm 4 mps 745 mmHg 91%
14:00 +28°C° 1.2 mm 4 mps 745 mmHg 91%
15:00 +28°C° 1.2 mm 4 mps 744 mmHg 92%
16:00 +26°C° 1.3 mm 4 mps 745 mmHg 93%
17:00 +25°C° 1.3 mm 3 mps 745 mmHg 94%
18:00 +22°C° 1.3 mm 3 mps 746 mmHg 95%
19:00 +21°C° 0.4 mm 3 mps 746 mmHg 95%
20:00 +20°C° 0.4 mm 2 mps 746 mmHg 96%
21:00 +19°C° 0.4 mm 2 mps 747 mmHg 96%
22:00 +19°C° 1 mm 2 mps 747 mmHg 96%
23:00 +19°C° 1 mm 2 mps 748 mmHg 97%
Show more